This is the latest recevied weather packets stored in our database for station/object N0EDB-13. If no packets are shown the sender has not sent any weather packets the latest 10 day(s).
| Time | Temp. | Humidity | Pressure | Rain* | Wind** | Luminosity | Snow |
|---|---|---|---|---|---|---|---|
| 1777388427 | 5° C | 85% | 1518.3 hPa | 0 mm | - | 77 W/m² | - |
| 1777388126 | 5° C | 86% | 1517.9 hPa | 0 mm | - | 82 W/m² | - |
| 1777387825 | 5° C | 86% | 1518 hPa | 0 mm | - | 129 W/m² | - |
| 1777387525 | 5° C | 86% | 1518.5 hPa | 0 mm | - | 184 W/m² | - |
| 1777387224 | 4.44° C | 86% | 1518.6 hPa | 0 mm | - | 224 W/m² | - |
| 1777386923 | 4.44° C | 87% | 1518.8 hPa | 0 mm | - | 127 W/m² | - |
| 1777386623 | 4.44° C | 87% | 1519.2 hPa | 0 mm | - | 117 W/m² | - |
| 1777386322 | 4.44° C | 88% | 1519.9 hPa | 0 mm | - | 121 W/m² | - |
| 1777386022 | 4.44° C | 87% | 1520 hPa | 0 mm | - | 119 W/m² | - |
| 1777385722 | 4.44° C | 87% | 1519.8 hPa | 0 mm | - | 67 W/m² | - |
| 1777385421 | 4.44° C | 88% | 1519.8 hPa | 0 mm | - | 69 W/m² | - |
| 1777385119 | 4.44° C | 88% | 1520 hPa | 0 mm | - | 69 W/m² | - |
| 1777384819 | 3.89° C | 88% | 1519.5 hPa | 0 mm | - | 97 W/m² | - |
| 1777384518 | 4.44° C | 88% | 1518.8 hPa | 0 mm | - | 119 W/m² | - |
| 1777384217 | 4.44° C | 88% | 1518.8 hPa | 0 mm | - | 105 W/m² | - |
| 1777383916 | 3.89° C | 88% | 1519.6 hPa | 0 mm | - | 93 W/m² | - |
| 1777383616 | 3.89° C | 88% | 1520.1 hPa | 0 mm | - | 98 W/m² | - |
| 1777383316 | 3.89° C | 88% | 1520.6 hPa | 0.25 mm | - | 106 W/m² | - |
| 1777383014 | 3.89° C | 88% | 1521.5 hPa | 0.25 mm | - | 94 W/m² | - |
| 1777382713 | 3.33° C | 88% | 1521.7 hPa | 0.25 mm | - | 57 W/m² | - |
| 1777382412 | 3.33° C | 89% | 1522.2 hPa | 0.25 mm | - | 33 W/m² | - |
| 1777382112 | 3.33° C | 89% | 1522.5 hPa | 0.25 mm | - | 23 W/m² | - |
| 1777381811 | 3.33° C | 89% | 1522.2 hPa | 0.25 mm | - | 46 W/m² | - |
| 1777381511 | 3.33° C | 89% | 1522.2 hPa | 0.25 mm | - | 33 W/m² | - |
| 1777381210 | 3.33° C | 89% | 1522.1 hPa | 0.25 mm | - | 12 W/m² | - |
* Rain latest hour (hover to see other rain measurements)
** Current wind speed in m/s (hover to see current wind gust speed)